Regional Weather Roundup
Issued by NWS

Home | Current Version | Previous Version | Graphics & Text | Print | Product List | Glossary On
Versions: 1 2 3 4 5 6 7 8 9 10 11 12 13 14 15 16 17 18 19 20 21 22 23 24 25 26 27 28 29 30 31 32 33 34 35 36 37 38 39 40 41 42 43 44 45 46 47 48 49 50
000
ASUS43 KBIS 032210
RWRND

NORTH DAKOTA REGIONAL WEATHER ROUNDUP
NATIONAL WEATHER SERVICE BISMARCK ND
500 PM CDT FRI JUL 03 2015

NOTE: "FAIR" INDICATES FEW OR NO CLOUDS BELOW 12,000 FEET WITH NO
SIGNIFICANT WEATHER AND/OR OBSTRUCTIONS TO VISIBILITY.


NDZ001>003-009>011-017-032300-
NORTHWEST NORTH DAKOTA

CITY           SKY/WX    TMP DP  RH WIND       PRES   REMARKS
WILLISTON      SUNNY     86  55  34 SW5       29.91F
MINOT          CLOUDY    82  61  48 S6        29.91F HAZE
MINOT AFB      SUNNY     84  70  63 S5        29.91F HAZE
$$

NDZ018>021-031>035-040>046-032300-
SOUTHWEST NORTH DAKOTA

CITY           SKY/WX    TMP DP  RH WIND       PRES   REMARKS
BISMARCK       PTSUNNY   81  63  54 VRB7      29.94F HAZE
DICKINSON      MOSUNNY   82  61  48 SE10      29.94F
GARRISON         N/A     79  63  57 CALM      29.93F
HETTINGER ARPT PTSUNNY   84  57  39 E6        29.97F
$$

NDZ004>008-012>016-024-026-027-054-032300-
NORTHEAST NORTH DAKOTA

CITY           SKY/WX    TMP DP  RH WIND       PRES   REMARKS
GRAND FORKS    MOSUNNY   81  59  47 N6        29.90F HAZE
GRND FRKS AFB  SUNNY     80  59  48 NE6       29.92S
DEVILS LAKE    SUNNY     81  61  50 SW7       29.92F
$$

NDZ022-023-025-028>030-036>039-047>053-032300-
SOUTHEAST NORTH DAKOTA

CITY           SKY/WX    TMP DP  RH WIND       PRES   REMARKS
FARGO          MOSUNNY   82  62  50 N7        29.90F HAZE
JAMESTOWN      CLOUDY    81  61  50 E3        29.93F HAZE
$$




USA.gov is the U.S. government's official web portal to all federal, state and local government web resources and services.